Harrisburg, PA

11:14 AM EDT on September 21, 2017 (GMT -0400)
Capital City

Weather History for KCXY - June, 2013

Change the Weather History Date:

Monday, June 17, 2013

  Actual Average Record
Temperature  
Mean Temperature 74 °F -  
Max Temperature 86 °F 78 °F 98 °F (1939)
Min Temperature 64 °F 60 °F 45 °F (1961)
Cooling Degree Days 9    
Growing Degree Days 24 (Base 50)    
Moisture  
Dew Point 63 °F    
Average Humidity 70    
Maximum Humidity 93    
Minimum Humidity 37    
Precipitation  
Precipitation 0.37 in - - ()
Sea Level Pressure  
Sea Level Pressure 29.91 in    
Wind  
Wind Speed 5 mph (West)    
Max Wind Speed 18 mph    
Max Gust Speed 24 mph    
Visibility 9 miles    
Events Rain    
Averages and records for this station are not official NWS values.
T = Trace of Precipitation, MM = Missing Value Source: NWS Daily Summary

Daily Weather History Graph

Daily Weather History Graph

Search for Another Location

Airport or City:

Trip Planner

Search our weather history database for the weather conditions in past years. The results will help you decide how hot, cold, wet, or windy it might be!

Date:

Astronomy

Jun. 17, 2013 Rise Set
Actual Time 5:37 AM EDT 8:39 PM EDT
Civil Twilight 5:04 AM EDT 9:12 PM EDT
Nautical Twilight 4:22 AM EDT 9:54 PM EDT
Astronomical Twilight 3:33 AM EDT 10:43 PM EDT
Moon 2:15 PM EDT (6/17) 1:12 AM EDT (6/17)
Length of Visible Light 16h 08m
Length of Day
15h 02m
First Quarter, 60% of the Moon is Illuminated
Jun 17
First Quarter
Jun 23
Full
Jun 30
Last Quarter
Jul 8
New
Jul 15
First Quarter

Hourly Weather History & Observations

Time (EDT) Temp. Heat Index Dew Point Humidity Pressure Visibility Wind Dir Wind Speed Gust Speed Precip Events Conditions
12:56 AM 69.1 °F - 63.0 °F 81% 29.91 in 10.0 mi West 6.9 mph - N/A   Clear
1:56 AM 70.0 °F - 63.0 °F 78% 29.90 in 10.0 mi NW 3.5 mph - N/A   Clear
2:56 AM 68.0 °F - 63.0 °F 84% 29.90 in 10.0 mi Calm Calm - N/A   Clear
3:56 AM 64.9 °F - 62.1 °F 90% 29.90 in 9.0 mi Calm Calm - N/A   Clear
4:56 AM 64.9 °F - 62.1 °F 90% 29.92 in 9.0 mi Calm Calm - N/A   Scattered Clouds
5:56 AM 64.9 °F - 63.0 °F 93% 29.93 in 7.0 mi Calm Calm - N/A   Clear
6:56 AM 66.9 °F - 64.0 °F 90% 29.94 in 8.0 mi West 3.5 mph - N/A   Clear
7:56 AM 71.1 °F - 64.0 °F 78% 29.94 in 10.0 mi WSW 4.6 mph - N/A   Clear
8:56 AM 75.0 °F - 66.0 °F 73% 29.95 in 10.0 mi West 5.8 mph - N/A   Scattered Clouds
9:56 AM 79.0 °F - 66.9 °F 66% 29.93 in 10.0 mi West 8.1 mph - N/A   Clear
10:56 AM 80.1 °F 82.1 °F 66.0 °F 62% 29.92 in 10.0 mi SSW 6.9 mph - N/A   Mostly Cloudy
11:56 AM 82.0 °F 84.1 °F 66.0 °F 58% 29.92 in 10.0 mi WSW 6.9 mph - N/A   Mostly Cloudy
12:56 PM 82.0 °F 83.1 °F 63.0 °F 52% 29.91 in 10.0 mi WNW 5.8 mph - N/A   Mostly Cloudy
1:56 PM 84.0 °F 85.8 °F 64.9 °F 53% 29.90 in 10.0 mi West 11.5 mph - N/A   Scattered Clouds
2:48 PM 78.8 °F - 66.2 °F 65% 29.91 in 1.8 mi NNE 18.4 mph 24.2 mph 0.12 in Rain Heavy Rain
2:52 PM 75.2 °F - 64.4 °F 69% 29.90 in 0.8 mi Variable 5.8 mph 24.2 mph 0.28 in Rain Heavy Rain
2:56 PM 77.0 °F - 64.0 °F 64% 29.90 in 0.8 mi Calm Calm - 0.33 in Rain Heavy Rain
3:05 PM 75.2 °F - 66.2 °F 73% 29.90 in 5.0 mi WNW 8.1 mph - 0.01 in Rain Light Rain
3:56 PM 82.0 °F 85.5 °F 69.1 °F 65% 29.88 in 10.0 mi WSW 4.6 mph - 0.04 in   Partly Cloudy
4:56 PM 84.0 °F 84.0 °F 60.1 °F 44% 29.86 in 10.0 mi West 4.6 mph - N/A   Scattered Clouds
5:56 PM 82.9 °F 82.4 °F 57.0 °F 41% 29.87 in 10.0 mi WNW 8.1 mph - N/A   Clear
6:56 PM 84.0 °F 82.9 °F 55.0 °F 37% 29.87 in 10.0 mi WNW 4.6 mph - N/A   Clear
7:56 PM 78.1 °F - 64.0 °F 62% 29.88 in 10.0 mi Calm Calm - N/A   Clear
8:56 PM 70.0 °F - 63.0 °F 78% 29.89 in 10.0 mi SSW 3.5 mph - 0.00 in Rain Light Rain
9:56 PM 69.1 °F - 62.1 °F 78% 29.92 in 10.0 mi South 4.6 mph - 0.00 in   Clear
10:56 PM 69.1 °F - 61.0 °F 75% 29.91 in 10.0 mi Calm Calm - N/A   Clear
11:56 PM 66.9 °F - 62.1 °F 84% 29.92 in 10.0 mi Calm Calm - N/A   Clear